Station 41029 - Capers Nearshore, SC (CAP2) Image indicating link to RSS feed of recent meteorological observations for station 41029


Conditions at 41029 as of
(9:08 am EDT)
1308 GMT on 05/24/2024:
     

Click on the graph icon in the table below to see a time series plot of the last five days of that observation.

5-day plot - Wind Direction Wind Direction (WDIR): SW ( 230 deg true )
5-day plot - Wind Speed Wind Speed (WSPD): 7.8 kts
5-day plot - Wind Gust Wind Gust (GST): 9.7 kts
5-day plot - Atmospheric Pressure Atmospheric Pressure (PRES):29.94 in
5-day plot - Air Temperature Air Temperature (ATMP): 76.3 °F
5-day plot - Water Temperature Water Temperature (WTMP): 76.6 °F
5-day plot - Salinity Salinity (SAL): 33.55 psu
5-day plot - Dew Point Dew Point (DEWP): 72.9 °F
5-day plot - Wind Speed at 10 Meters Wind Speed at 10 meters (WSPD10M): 7.8 kts
5-day plot - Wind Speed at 20 Meters Wind Speed at 20 meters (WSPD20M): 7.8 kts
5-day plot -  Wind Speed, Wind Gust and Atmospheric Pressure Combined plot of Wind Speed, Gust, and Air Pressure
Previous observations
TIME
(EDT)
5-day plot - Wind Direction
WDIR
 
5-day plot - Wind Speed
WSPD
kts
5-day plot - Wind Gust
GST
kts
5-day plot - Wave Height
WVHT
ft
5-day plot - Dominant Wave Period
DPD
sec
5-day plot - Average Wave Period
APD
sec
5-day plot - Mean Wave Direction
MWD
 
5-day plot - Atmospheric Pressure
PRES
in
5-day plot - Pressure Tendency
PTDY
in
5-day plot - Air Temperature
ATMP
°F
5-day plot - Water Temperature
WTMP
°F
5-day plot - Dew Point
DEWP
°F
5-day plot - Salinity
SAL
psu
5-day plot - Visibility
VIS
nmi
5-day plot - Tide (above MLLW)
TIDE
ft
2024-05-24 08:08 am W 9.7 11.7----29.93- 75.9 76.5 73.0 33.52--
2024-05-24 07:08 amWSW 11.7 15.5----29.93- 75.9 76.5 73.4 33.49--
2024-05-24 06:08 am SW 13.6 17.5----29.91- 75.9 76.6 72.9 33.49--
2024-05-24 05:08 am SW 11.7 17.5----29.92- 75.9 76.6 72.7 33.49--
2024-05-24 04:08 am SW 13.6 17.5----29.94- 75.9 77.0 72.5 33.43--
2024-05-24 03:08 am SW 11.7 15.5----29.95- 75.9 76.8 72.3 33.37--
2024-05-24 02:08 am SW 9.7 13.6----29.95- 75.9 76.8 72.0 33.33--
2024-05-24 01:08 amSSW 9.7 13.6----29.96- 76.3 76.8 72.0 33.51--
2024-05-24 12:08 am SW 9.7 13.6----29.98- 76.5 76.5 71.4 33.72--
2024-05-23 11:08 pmSSW 11.7 13.6----29.97- 76.5 76.8 71.4 33.74--
2024-05-23 10:08 pm SW 13.6 17.5----29.97- 76.6 77.5 72.3 33.68--
2024-05-23 09:08 pmSSW 15.5 19.4----29.94- 76.6 77.5 72.1 33.73--
2024-05-23 08:08 pmSSW 13.6 21.4----29.95- 77.0 77.4 72.3 33.75--
2024-05-23 07:08 pmSSW 11.7 15.5----29.96- 77.0 77.5 71.8 33.80--
2024-05-23 06:08 pmSSW 9.7 13.6----29.96- 77.2 77.7 72.1 33.88--
2024-05-23 05:08 pmSSW 11.7 15.5----29.97- 77.2 77.2 72.3 33.85--
2024-05-23 04:08 pm S 13.6 17.5----29.98- 76.5 77.2 72.3 33.54--
2024-05-23 03:08 pm S 11.7 13.6----29.99- 76.6 77.7 72.5 33.31--
2024-05-23 02:08 pm S 9.7 13.6----30.01- 76.6 77.5 72.5 33.25--
2024-05-23 01:08 pm S 9.7 11.7----30.01- 76.8 77.0 71.8 33.22--
2024-05-23 12:08 pmSSW 7.8 9.7----30.03- 76.6 76.6 71.4 33.27--
2024-05-23 11:08 amWSW 5.8 9.7----30.03- 76.3 75.6 70.7 33.38--
2024-05-23 10:08 am W 5.8 7.8----30.03- 76.3 75.2 70.7 33.33--
2024-05-23 09:08 am W 5.8 7.8----30.04- 75.4 75.0 70.2 33.27--

Ocean Conditions at 41029 as of
(9:08 am EDT)
1308 GMT on 05/24/2024:

These oceanographic data are displayed in rounded times.

     

Click on the graph icon in the table below to see a time series plot of the last five days of that observation.

Depth (DEPTH): 0.0 ft
5-day plot - Ocean Temperature Ocean Temperature (OTMP):76.66 °F
5-day plot - Salinity Salinity (SAL):33.55 psu
Previous observations
TIME
(EDT)
DEPTH
ft
5-day plot - Ocean Temperature
OTMP
°F
5-day plot - Conductivity
COND
mS/cm
5-day plot - Salinity
SAL
psu
5-day plot - Oxygen Concentration
O2%
%
5-day plot - Oxygen Concentration
O2PPM
ppm
5-day plot - Chlorophyll
CLCON
ug/l
5-day plot - Turbidity
TURB
FTU
5-day plot - pH
PH
 
5-day plot - Eh
EH
mv
2024-05-24 08:08 am 0.076.50-33.52------
2024-05-24 07:08 am 0.076.48-33.49------
2024-05-24 06:08 am 0.076.57-33.49------
2024-05-24 05:08 am 0.076.71-33.49------
2024-05-24 04:08 am 0.077.04-33.43------
2024-05-24 03:08 am 0.076.78-33.37------
2024-05-24 02:08 am 0.076.80-33.33------
2024-05-24 01:08 am 0.076.77-33.51------
2024-05-24 12:08 am 0.076.46-33.72------
2024-05-23 11:08 pm 3.376.87-33.74------
2024-05-23 10:08 pm 0.077.47-33.68------
2024-05-23 09:08 pm 0.077.56-33.73------
2024-05-23 08:08 pm 0.077.43-33.75------
2024-05-23 07:08 pm 0.077.49-33.80------
2024-05-23 06:08 pm 0.077.65-33.88------
2024-05-23 05:08 pm 0.077.25-33.85------
2024-05-23 04:08 pm 0.077.23-33.54------
2024-05-23 03:08 pm 0.077.76-33.31------
2024-05-23 02:08 pm 0.077.59-33.25------
2024-05-23 01:08 pm 0.077.04-33.22------
2024-05-23 12:08 pm 0.076.55-33.27------
2024-05-23 11:08 am 0.075.58-33.38------
2024-05-23 10:08 am 0.075.27-33.33------
2024-05-23 09:08 am 0.075.07-33.27------